{"data":{"norad_id":55414,"intl_designator":"2023-014Z","name":"STARLINK-5620","alt_names":[],"object_type":"PAYLOAD","status":"ACTIVE","operator":null,"country":"US","launch_date":"2023-01-31","launch_site_code":"AFWTR","launch_vehicle":null,"mission":null,"orbit_class":"UNKNOWN","rcs_meters":null,"size_class":null,"mass_kg":null,"dimensions":null,"purposes":["comms"],"wikipedia_slug":null,"has_3d_model":false,"image_url":null,"decayed_at":null,"tle_current":{"epoch":"2026-09-20T22:00:03.000096Z","epoch_age_seconds":60680,"freshness":"FRESH","line1":"1 55414U 23014Z   26263.91670139  .00083094  00000+0  58868-2 0  9994","line2":"2 55414  70.0009 312.0873 0004427 234.6421 306.8506 15.04325108  5710","mean_motion":15.04325108,"eccentricity":0.0004427,"inclination_deg":70.0009,"raan_deg":312.0873,"arg_perigee_deg":234.6421,"mean_anomaly_deg":306.8506,"bstar":0.0058868,"rev_number":571,"period_min":95.723988939763,"perigee_km":550.50944101874,"apogee_km":556.64678157829,"semimajor_km":6931.7151112985,"source":"CELESTRAK","updated_at":"2026-09-21T09:00:33.218061Z"}}}